KLM74B EHAM-TNCM

Flight info

Callsign KLM74B
Flight time N/A
Altitude 36000
Route BERGI L60 PENIL M144 BAGSO DCT LIMRI/M081F380 DCT 51N020W 49N030W 44N040W 34N050W/M081F400 27N056W 22N060W DCT OBIKE/N0462F400 L335 TRNKY
Aircraft A333/H-SDE3GHIJ2J3J5M1RVWXY/LB2D1

Departure

Time 2026-04-30 20:34
Airport Amsterdam Airport Schiphol (EHAM)

Arrival

Time N/A
Airport Princess Juliana International Airport (TNCM)
Time Latitude Longitude Altitude Speed Heading
2026-04-30 19:47 52.30889 4.77238 22 ft 0 kts
2026-04-30 20:19 52.30880 4.77238 24 ft 2 kts
2026-04-30 20:20 52.30863 4.77235 23 ft 2 kts 40°
2026-04-30 20:20 52.30853 4.77215 23 ft 2 kts 64°
2026-04-30 20:20 52.30845 4.77183 24 ft 5 kts 81°
2026-04-30 20:20 52.30844 4.77176 24 ft 0 kts 105°
2026-04-30 20:24 52.30844 4.77177 20 ft 0 kts 104°
2026-04-30 20:24 52.30844 4.77204 20 ft 3 kts 91°
2026-04-30 20:24 52.30843 4.77250 21 ft 5 kts 92°
2026-04-30 20:24 52.30841 4.77315 24 ft 6 kts 92°
2026-04-30 20:25 52.30835 4.77486 20 ft 10 kts 94°
2026-04-30 20:25 52.30861 4.77587 22 ft 8 kts 30°
2026-04-30 20:26 52.31056 4.77624 20 ft 20 kts
2026-04-30 20:26 52.31260 4.77645 23 ft 20 kts
2026-04-30 20:26 52.31434 4.77641 24 ft 27 kts 344°
2026-04-30 20:27 52.31577 4.77244 20 ft 23 kts 267°
2026-04-30 20:27 52.31560 4.76702 20 ft 24 kts 266°
2026-04-30 20:28 52.31538 4.76100 20 ft 32 kts 266°
2026-04-30 20:28 52.31515 4.75400 21 ft 30 kts 266°
2026-04-30 20:29 52.31508 4.74712 23 ft 25 kts 305°
2026-04-30 20:30 52.31601 4.74668 23 ft 0 kts
2026-04-30 20:32 52.31650 4.74722 22 ft 9 kts 59°
2026-04-30 20:32 52.31678 4.75034 18 ft 34 kts 87°
2026-04-30 20:33 52.31699 4.75690 20 ft 83 kts 87°
2026-04-30 20:33 52.31807 4.78533 154 ft 148 kts 89°
2026-04-30 20:33 52.31835 4.79570 454 ft 149 kts 90°
2026-04-30 20:34 52.33265 4.82811 1115 ft 215 kts
2026-04-30 20:34 52.36364 4.80972 1445 ft 269 kts 337°
2026-04-30 20:35 52.37516 4.80061 1738 ft 272 kts 338°
2026-04-30 20:35 52.39110 4.78447 2380 ft 275 kts 321°
2026-04-30 20:35 52.41915 4.73954 3478 ft 286 kts 314°
2026-04-30 20:36 52.43315 4.71612 4114 ft 288 kts 314°
2026-04-30 20:36 52.44726 4.69273 4778 ft 290 kts 314°
2026-04-30 20:36 52.47947 4.65259 6026 ft 295 kts 338°
2026-04-30 20:37 52.49855 4.63965 6714 ft 297 kts 341°
2026-04-30 20:37 52.51709 4.62784 7330 ft 299 kts 341°
2026-04-30 20:37 52.53647 4.61552 7996 ft 301 kts 341°
2026-04-30 20:37 52.55615 4.60290 8675 ft 302 kts 341°
2026-04-30 20:38 52.57568 4.59030 9369 ft 304 kts 340°
2026-04-30 20:38 52.59515 4.57768 10024 ft 306 kts 340°
2026-04-30 20:38 52.61521 4.56466 10585 ft 312 kts 340°
2026-04-30 20:39 52.65757 4.53700 11093 ft 344 kts 338°
2026-04-30 20:39 52.67883 4.51709 11301 ft 361 kts 321°
2026-04-30 20:39 52.69579 4.48704 11517 ft 375 kts 306°
2026-04-30 20:40 52.72602 4.41499 12481 ft 386 kts 303°
2026-04-30 20:40 52.74111 4.37766 13012 ft 389 kts 301°
2026-04-30 20:40 52.75341 4.33779 13549 ft 392 kts 292°
2026-04-30 20:41 52.77234 4.25248 14557 ft 398 kts 286°
2026-04-30 20:41 52.78071 4.20884 15075 ft 399 kts 285°
2026-04-30 20:41 52.78899 4.16495 15564 ft 401 kts 285°
2026-04-30 20:41 52.79694 4.12322 16025 ft 404 kts 286°
2026-04-30 20:42 52.80554 4.07882 16499 ft 406 kts 286°
2026-04-30 20:42 52.81350 4.03828 16918 ft 408 kts 286°
2026-04-30 20:42 52.83128 3.94877 17970 ft 410 kts 286°
2026-04-30 20:43 52.84022 3.90390 18439 ft 412 kts 286°
2026-04-30 20:43 52.84920 3.85874 18870 ft 414 kts 286°
2026-04-30 20:43 52.85819 3.81341 19247 ft 416 kts 286°
2026-04-30 20:44 52.87590 3.72369 20016 ft 420 kts 286°
2026-04-30 20:44 52.88496 3.67758 20406 ft 422 kts 286°
2026-04-30 20:44 52.90284 3.58627 21141 ft 426 kts 286°
2026-04-30 20:45 52.92108 3.49262 21907 ft 430 kts 286°
2026-04-30 20:45 52.93027 3.44530 22278 ft 431 kts 286°
2026-04-30 20:45 52.93947 3.39775 22598 ft 434 kts 286°
2026-04-30 20:46 52.96725 3.25359 23630 ft 440 kts 286°
2026-04-30 20:46 52.97641 3.20579 23946 ft 441 kts 286°
2026-04-30 20:47 52.99491 3.10895 24531 ft 444 kts 285°
2026-04-30 20:47 53.00424 3.05984 24772 ft 447 kts 286°
2026-04-30 20:48 53.02290 2.96135 25395 ft 449 kts 285°
2026-04-30 20:48 53.03228 2.91166 25673 ft 450 kts 285°
2026-04-30 20:48 53.04165 2.86190 25967 ft 452 kts 285°
2026-04-30 20:48 53.05101 2.81203 26232 ft 453 kts 285°
2026-04-30 20:49 53.06024 2.76269 26565 ft 453 kts 285°
2026-04-30 20:49 53.06963 2.71244 26760 ft 456 kts 285°
2026-04-30 20:49 53.07905 2.66185 26998 ft 458 kts 285°